www.pogodaiklimat.ru

Погода и климат >> Архив погоды >> Россия >> Оренбургская область >> Первомайский


ПОГОДА в Первомайском

  • Прогноз погоды в Первомайском
  • Монитор погоды в Первомайском

АРХИВ ПОГОДЫ в Первомайском

Время (UTC), дата Ветер
(напр.,м/с)
 
Видим.   Явления Облачность Т
(С)
Тd
(С)
f
(%)
Тe
(С)
Тes
(С)
Комфортность P
(гПа)
Po
(гПа)
Тmin
(С)
Tmax
(С)
R
(мм)
R24
(мм)
S
(см)
18 11.01 Ю 3 4000 м слаб. снег 10/0
[As op]
-11.5 -13.7 84 -17 -17 1021.5 1012.3
21 11.01 ЮВ 5 4000 м слаб. снег 10/0
[As op]
-10.2 -12.1 86 -18 -18 1018.3 1009.2
00 12.01 ЮВ 7 2000 м снег 10/0
[As op]
-8.7 -10.5 87 -18 -18 1014.7 1005.7
03 12.01 Ю 11-16
{16}
1000 м сильн. снег 10/0
[As op]
-6.8 -8.0 91 -17 -17 1009.6 1000.6 -11.8 6 29
06 12.01 Ю 7-12
{16}
2000 м снег {метель} 10/0
[As op]
-3.6 -4.6 93 -12 -12 1008.4 999.5
09 12.01 Ю 5-10
{13}
2000 м снег {метель} 10/0
[As op]
-0.1 -0.9 94 -6 -6 1006.7 998.0
12 12.01 Ю 6-10
{13}
2000 м дождь со снегом 10/0
[As op]
+0.9 -0.1 93 -6 -6 1005.3 996.8
15 12.01 Ю 7-12
{13}
2000 м снег {дождь} 10/0
[As op]
+0.4 -0.3 95 -7 -7 1003.2 994.5 +0.9 10
18 12.01 ЮЗ 6-12
{14}
4000 м дымка {снег, дождь} 10/0
[As op]
+0.6 -0.6 92 -6 -6 1002.9 994.2
21 12.01 ЮЗ 5-12
{13}
10 км {снег} 10/0
[As op]
+0.1 -2.2 84 -6 -6 1003.3 994.6
00 13.01 ЮЗ 5-11
{13}
10 км {снег} 10/4 300 м
[Sc As op]
-1.2 -3.0 88 -8 -8 1003.3 994.6
03 13.01 ЮЗ 5
{12}
10 км 10/0
[Ac As]
-6.2 -8.7 82 -14 -14 1005.5 996.6 -6.2 2 27
06 13.01 Ю 2 20 км 10/0
[Ac As]
-7.1 -10.0 80 -11 -11 1006.8 997.9 -7.1
09 13.01 Ю 4 20 км {снег} 10/0
[As op]
-5.8 -8.2 83 -12 -12 1006.7 997.8
12 13.01 ЮЗ 4 10 км слаб. снег 10/0
[As op]
-5.6 -7.5 86 -12 -12 1006.8 997.9
15 13.01 Ю 2 4000 м слаб. снег 10/0
[As op]
-5.8 -7.2 90 -10 -10 1006.5 997.6 -5.3 0.3
18 13.01 Ю 3 4000 м слаб. снег 10/0
[As op]
-5.4 -6.9 89 -11 -11 1006.1 997.2
21 13.01 З 2 4000 м слаб. снег 10/0
[As op]
-5.0 -6.4 90 -9 -9 1006.2 997.3
00 14.01 З 2 10 км {снег} ясно -7.9 -11.0 78 -12 -12 1007.0 998.0
03 14.01 ЮЗ 1 10 км ясно -14.3 -15.9 88 -17 -17 1008.5 999.3 -14.3 0.3 28
06 14.01 штиль 0 20 км 10/0
[As op]
-12.2 -13.9 87 -12 -12 1009.9 1000.7 -15.2
09 14.01 ЮЗ 1 4000 м дымка 10/0
[As op]
-9.2 -12.2 79 -11 -11 1010.5 1001.4
12 14.01 ЮЗ 1 4000 м слаб. снег 10/0
[As op]
-9.0 -11.2 84 -11 -11 1011.2 1002.1
15 14.01 Ю 1 4000 м слаб. снег 10/10 270 м
[St]
-9.0 -10.7 87 -11 -11 1012.1 1003.1 -8.3 0.0
18 14.01 Ю 4 10 км {снег} 10/10 400 м
[St]
-9.3 -10.8 89 -16 -16 1012.9 1003.9
21 14.01 ЮВ 1 2000 м дымка 10/10 210 м
[St]
-10.2 -11.5 90 -13 -13 1013.8 1004.7
00 15.01 ЮВ 2 2000 м снег {туман} [диам. изморози мм] 10/0
[As op]
-9.5 -10.9 90 -14 -14 1014.1 1005.0
03 15.01 ЮВ 2 2000 м дымка {снег} [диам. изморози мм] 10/10 210 м
[St]
-10.1 -11.5 89 -15 -15 1014.5 1005.4 -11.6 0.2 28
06 15.01 ЮВ 2 1000 м снежные зёрна {туман} [диам. изморози мм] 10/10 210 м
[St]
-7.4 -8.5 92 -12 -12 1014.8 1005.8
09 15.01 Ю 8-10
{11}
2000 м слаб. снег [диам. изморози мм] 10/8 240 м
[Frnb As op]
-5.2 -6.2 93 -14 -14 1014.3 1005.4
12 15.01 Ю 7-12
{12}
4000 м слаб. снег 10/0
[As op]
-4.8 -6.4 89 -13 -13 1014.4 1005.4
15 15.01 Ю 6-10
{12}
10 км в посл. час снег 10/6 600 м
[Sc As op]
-5.1 -6.6 89 -13 -13 1014.7 1005.8 -4.7 0.0
18 15.01 Ю 9-13
{14}
2000 м снег {метель} 10/0
[As op]
-5.1 -6.1 93 -14 -14 1014.2 1005.3
21 15.01 Ю 7
{15}
2000 м дымка {снег} 10/10 270 м
[Frnb]
-4.4 -5.3 93 -13 -13 1015.0 1006.1
00 16.01 ЮВ 7-12
{13}
4000 м дымка {снег} 10/6 300 м
[Frnb As op]
-3.0 -4.0 93 -11 -11 1014.3 1005.4
03 16.01 Ю 7-12
{13}
4000 м дымка 6/0
[Ac trans]
-5.3 -6.5 91 -14 -14 1013.6 1004.6 -5.5 1 26
06 16.01 ЮВ 3
{12}
20 км 9/0
[Cs]
-7.2 -9.2 86 -13 -12 1013.5 1004.5 -7.9
09 16.01 В 5
{10}
20 км 10/0
[As trans Cs]
-6.5 -9.8 77 -14 -13 1011.3 1002.4
12 16.01 ЮВ 8-13
{14}
20 км позёмок 10/0
[Ac As]
-3.5 -6.5 80 -12 -12 1009.6 1000.8
15 16.01 ЮВ 10-16
{19}
10 км позёмок 10/0
[Ac und]
-3.1 -6.0 80 -12 -12 1006.9 998.1 -3.1
18 16.01 Ю 8-15
{16}
4000 м слаб. снег {метель} 10/10 240 м
[St]
-3.6 -4.9 91 -12 -12 1006.6 997.8
21 16.01 Ю 9-14
{15}
2000 м слаб. снег {метель} 10/10 210 м
[St]
-4.1 -5.0 93 -13 -13 1006.4 997.6
00 17.01 ЮВ 7-12
{15}
2000 м слаб. снег {метель} 10/4 600 м
[Sc As op]
-4.2 -5.1 93 -12 -12 1005.8 997.0
03 17.01 Ю 4
{12}
1000 м снег {метель} 10/0
[As op]
-4.3 -5.2 93 -11 -11 1006.7 997.9 -4.3 2 27
06 17.01 СЗ 4 20 км в посл. час снег {метель} 9/0
[Ac As]
-4.0 -5.6 89 -10 -10 1008.7 999.8
09 17.01 СЗ 4 20 км 8/0
[Ac trans Ci fib]
-5.7 -8.1 83 -12 -11 1010.6 1001.7
12 17.01 СЗ 3 20 км 9/4 600 м
[Sc Ac trans]
-7.4 -10.8 77 -13 -13 1013.5 1004.5
15 17.01 С 2 10 км 8/0
[Ac trans]
-11.2 -13.5 83 -16 -16 1016.1 1007.0 -3.7 0.2
18 17.01 З 1 10 км 10/5 300 м
[Sc Ac As]
-9.6 -11.9 83 -12 -12 1017.4 1008.3
21 17.01 З 2 4000 м в посл. час снег 10/0
[As trans]
-9.7 -11.6 86 -14 -14 1018.7 1009.6
00 18.01 Ю 1 10 км {снег} 10/0
[As op]
-10.5 -12.3 87 -13 -13 1019.2 1010.1
03 18.01 ЮЗ 2 2000 м дымка [диам. изморози мм] 10/0
[As op]
-14.5 -16.3 86 -19 -19 1019.5 1010.2 -15.7 0.0 28
06 18.01 Ю 1 1000 м дымка [диам. изморози мм] 10/0
[As trans]
-15.4 -17.5 84 -18 -18 1020.4 1011.1 -16.5
09 18.01 Ю 2 2000 м дымка 9/0
[Ci fib]
-13.6 -16.1 81 -18 -17 1019.1 1009.9
12 18.01 Ю 2 20 км 9/0
[Ci fib]
-15.3 -18.6 76 -20 -20 1018.4 1009.1
15 18.01 ЮЗ 3 4000 м слаб. снег 10/0
[As op]
-14.7 -17.1 82 -21 -21 1019.0 1009.7 -13.2 0.0

 

Местоположение метеостанции Первомайский (Оренбургская область, Россия): широта 51.90 долгота 51.65 высота над уровнем моря 70 м.

В архиве по умолчанию представлена погода в Первомайском за последнюю неделю. Архивные данные за месяц целиком и за предыдущие месяцы, начиная с января 2011 года, Вы можете получить, выбрав интересующий диапазон дат из раскрывающегося списка и нажав кнопку "Ввод!".


*Определитесь, кто Вы:
робот инопланетянин человек

Внимание! Время в таблицах - всемирное. Для получения местного времени необходимо прибавить поправку, которая равна 5 ч.

Смотрите также архив погоды в соседних городах и на ближайших метеорологических станциях:

Погода в Январцево (Западно-Казахстанская область, Казахстан) (57 км)
Погода в Уральске (Западно-Казахстанская область, Казахстан) (77 км)
Погода в Авангард Зерносовхозе (Самарская область, Россия) (84 км)
Погода в Перелюбе (Саратовская область, Россия) (91 км)
Погода в Большая Глушица (Самарская область, Россия) (97 км)
Погода в Бузулуке (Оренбургская область, Россия) (109 км)
Погода в Сорочинске (Оренбургская область, Россия) (117 км)
Погода в Анкаты (Западно-Казахстанская область, Казахстан) (121 км)
Погода в Аксае (Западно-Казахстанская область, Казахстан) (123 км)
Погода в Илеке (Оренбургская область, Россия) (126 км)

Пояснения к столбцам:

Ветер - указаны скорость ветра в м/с - средняя за 10 мин, порывы в срок и между сроками (в фигурных скобках) и направление, откуда дует ветер: С - северный, СВ - северо-восточный, В - восточный, ЮВ - юго-восточный, Ю - южный, ЮЗ - юго-западный, З - западный, СЗ - северо-западный.
Видимость - горизонтальная дальность видимости в метрах или километрах. При видимости от 1 до 10 км при отсутствии осадков обычно наблюдается дымка, при ухудшении видимости до 1 км и менее - туман. В сухую погоду видимость может ухудшаться дымом, пылью или мглою.
Явления - указаны атмосферные явления, наблюдавшиеся в срок или в последний час перед сроком; фигурными скобками обозначены явления, наблюдавшиеся между сроками (за 1-3 часа до срока); квадратными скобками обозначены град или гололедные отложения с указанием их диаметра в мм.
Облачность - указаны через наклонную черту общая и нижняя облачность в баллах и высота нижней границы облаков в метрах; квадратными скобками обозначены формы облаков: Ci - перистые, Cs - перисто-слоистые, Cc - перисто-кучевые, Ac - высококучевые, As - высокослоистые, Sc - слоисто-кучевые, Ns - слоисто-дождевые, Cu - кучевые, Cb - кучево-дождевые. Подробнее классификацию облаков см. в Атласе облаков (PDF).
T - Температура воздуха - температура, измеренная на высоте 2 м над землей.
Td - Температура точки росы - температура, при понижении до которой содержащийся в воздухе водяной пар достигнет насыщения.
f - Относительная влажность воздуха - влажноcть воздуха, измеренная на высоте 2 м над землей.
Te - Эффективная температура - температура, которую ощущает одетый по сезону человек в тени. Характеристика душности погоды. При расчете учитывается влияние влажности воздуха и скорости ветра на теплоощущения человека.
Tes - Эффективная температура на солнце - температура, которую ощущает человек, с поправкой на солнечный нагрев. Характеристика знойности погоды. Зависит от высоты солнца над горизонтом, облачности и скорости ветра. Ночью, в пасмурную погоду, а также при ветре 12 м/с и более поправка равна нулю.
P - Атмосферное давление - приведенное к уровню моря атмосферное давление.
Po - Атмосферное давление - измеренное на уровне метеостанции атмосферное давление.
Tmin - Минимальная температура - минимум температуры воздуха на высоте 2 м над землей.
Tmax - Максимальная температура - максимум температуры воздуха на высоте 2 м над землей.
R - Количество осадков - Количество выпавших осадков за период времени, мм. При наведении курсора мыши на число - период времени, за который выпало указанное количество осадков.
R24 - Количество осадков - Количество выпавших осадков за 24 часа, мм.
S - Снежный покров - Высота снежного покрова, см. При наведении курсора мыши на число - состояние снежного покрова и степень покрытия местности в баллах.